{"data":{"norad_id":64942,"intl_designator":"2025-158L","name":"STARLINK-34742","alt_names":[],"object_type":"PAYLOAD","status":"ACTIVE","operator":null,"country":"US","launch_date":"2025-07-27","launch_site_code":"AFWTR","launch_vehicle":null,"mission":null,"orbit_class":"UNKNOWN","rcs_meters":null,"size_class":null,"mass_kg":null,"dimensions":null,"purposes":["comms"],"wikipedia_slug":null,"has_3d_model":false,"image_url":null,"decayed_at":null,"tle_current":{"epoch":"2026-05-25T03:29:06.968256Z","epoch_age_seconds":59336,"freshness":"FRESH","line1":"1 64942U 25158L   26145.14521954  .00002266  00000+0  16105-3 0  9996","line2":"2 64942  97.4495   9.1146 0002592  88.9531 271.1994 15.05656847 46862","mean_motion":15.05656847,"eccentricity":0.0002592,"inclination_deg":97.4495,"raan_deg":9.1146,"arg_perigee_deg":88.9531,"mean_anomaly_deg":271.1994,"bstar":0.00016105,"rev_number":4686,"period_min":95.639321992204,"perigee_km":547.69451066732,"apogee_km":551.28579258272,"semimajor_km":6927.627151625,"source":"CELESTRAK","updated_at":"2026-05-25T13:38:20.631723Z"}}}